Regional Weather Roundup
Issued by NWS Burlington, VT

Home | Current Version | Previous Version | Text Only | Print | Product List | Glossary On
Versions: 1 2 3 4 5 6 7 8 9 10 11 12 13 14 15 16 17 18 19 20 21 22 23 24 25 26 27 28 29 30 31 32 33 34 35 36 37 38 39 40 41 42 43 44 45 46 47 48 49 50
000
ASUS41 KBTV 290710
RWRBTV
VERMONT REGIONAL WEATHER ROUNDUP
NATIONAL WEATHER SERVICE BURLINGTON VT
200 AM EST MON DEC 29 2014

NOTE: "FAIR" INDICATES FEW OR NO CLOUDS BELOW 12,000 FEET WITH NO
SIGNIFICANT WEATHER AND/OR OBSTRUCTIONS TO VISIBILITY.

* THESE REPORTS ARE NOT UNDER NWS QUALITY CONTROL AND/OR DO NOT
  REPORT WEATHER SUCH AS PRECIPITATION AND FOG.

VTZ001>019-290800-
_____VERMONT_____


CITY           SKY/WX    TMP DP  RH WIND       PRES   REMARKS
BURLINGTON     CLOUDY    35  18  49 W5        30.01R
MONTPELIER     CLOUDY    30  16  56 W6        30.00R
MORRISVILLE    CLOUDY    33  15  47 MISG      29.99R
ST. JOHNSBURY*   N/A     28  19  69 MISG      29.95S
LYNDONVILLE*   CLOUDY    28  13  53 SE3       29.95S
MIDDLEBURY*    CLOUDY    29  21  71 CALM      30.02R
RUTLAND*       CLOUDY    32  18  55 W7        30.02R
SPRINGFIELD    MOSUNNY   29  19  66 CALM      30.03R
HIGHGATE*      FAIR      31  19  59 W5        29.99R
NEWPORT*       CLOUDY    28  17  65 CALM      29.95R
BENNINGTON     CLOUDY    33  25  72 SW7       30.04R
SUTTON*          N/A     25 N/A N/A MISG        N/A

_____LAKE CHAMPLAIN_____


CITY           SKY/WX    TMP DP  RH WIND       PRES   REMARKS
COLCHESTER RF*   N/A     36  23  60 W13         N/A

$$

NYZ007-026>031-035-052-083-290800-
_____NORTHERN NEW YORK_____


CITY           SKY/WX    TMP DP  RH WIND       PRES   REMARKS
PLATTSBURGH    CLOUDY    32  19  58 CALM      30.01R
SARANAC LAKE   CLOUDY    27  20  75 SW9       29.94R
MASSENA        CLOUDY    33  22  63 W7        30.04R
POTSDAM*       CLOUDY    32  27  80 W9        30.02R
WATERTOWN      SUNNY     34  21  59 W13       30.09R
FT DRUM        SUNNY     30  20  66 W8        30.05R
ALBANY         CLOUDY    35  26  69 S5        30.08R
GLENS FALLS    CLOUDY    33  23  66 SW5       30.06R

$$
NHZ002-005-011-290800-
_____NEW HAMPSHIRE_____


CITY           SKY/WX    TMP DP  RH WIND       PRES   REMARKS
LEBANON        MOSUNNY   27  21  78 CALM      30.00R
KEENE          SUNNY     32  21  64 S3        30.03R
MT WASHINGTON  BLWGSNOW   3   3 100 NW63G70     N/A  VSB 0   WCI -29
PLYMOUTH       FAIR      32  24  71 CALM      29.98R
WHITEFIELD     PTSUNNY   29  15  56 SW3       29.95R

$$

_____REGIONAL QUEBEC LOCATIONS_____


CITY           SKY/WX    TMP DP  RH WIND       PRES   REMARKS
MONTREAL       MOSUNNY   28  18  64 W14       29.99R WCI  17
QUEBEC CITY    CLOUDY    25  18  74 W6        29.90R
SHERBROOKE     CLOUDY    27  19  74 SW6       29.93R

_____REGIONAL ONTARIO LOCATIONS_____


CITY           SKY/WX    TMP DP  RH WIND       PRES   REMARKS
OTTAWA         CLOUDY    27  18  69 NW15      30.05R WCI  15

______KEY______
VSB  - VISIBILITY IN MILES
WCI  - WIND CHILL INDEX
HX   - HEAT INDEX
$$
NNNN


USA.gov is the U.S. government's official web portal to all federal, state and local government web resources and services.